[[{"header":{"parameterUnit":"m.s-1","parameterCategory":1,"la1":30.2991,"la2":30.254,"lo1":-89.0895,"lo2":-89.0444,"dy":0.0017,"dx":0.0017,"nx":28,"ny":28,"refTime":"2023-09-11T03:00:00:Z","depth":0,"parameterNumber":2,"parameterNumberName":"U-component_of_WINDS"},"data":[0,0,0,0,0,0,0,0,0,0,0,0,0,0,0,0,0,0,0,0,0,0,0,0,0,0,0,0,0,0,0,0,0,0,0,0,0,0,0,0,0,0,0,0,0,0,0,0,0,0,0,0,0,0,0,0,0,0,-0.3717,-0.3716,0,-0.3624,-0.3623,-0.3622,-0.3577,-0.3577,-0.3577,-0.3577,-0.3478,-0.3476,-0.3473,0,0,0,0,0,0,0,0,0,0,0,0,0,-0.3852,-0.385,-0.3717,-0.3716,-0.3715,-0.3624,-0.3623,-0.3622,-0.3577,-0.3577,-0.3577,-0.3577,-0.3479,-0.3476,-0.3473,0,0,0,0,0,0,0,0,0,0,0,0,0,-0.378,-0.3849,-0.3717,-0.3682,-0.3678,-0.3625,-0.3623,-0.3622,-0.3577,-0.3577,-0.3577,-0.3578,-0.348,-0.3476,-0.3472,-0.3447,0,0,-0.346,-0.3458,0,0,0,0,0,0,0,0,-0.3784,-0.3775,-0.3688,-0.3684,-0.3679,-0.3613,-0.3634,-0.3563,-0.3577,-0.3615,-0.3577,-0.3578,-0.3523,-0.3515,-0.3498,-0.3442,-0.3438,-0.346,-0.3457,-0.3456,-0.3455,0,0,0,0,0,0,0,-0.3789,-0.3778,-0.368,-0.3687,-0.3682,-0.3669,-0.3659,-0.362,-0.357,-0.3612,-0.3609,-0.3598,-0.352,-0.3502,-0.3495,-0.3436,-0.346,-0.3456,-0.3454,-0.3452,-0.3354,-0.3354,0,0,0,0,0,0,-0.38,-0.3783,-0.3683,-0.3677,-0.3733,-0.3667,-0.3655,-0.3634,-0.357,-0.356,-0.3598,-0.3597,-0.3508,-0.35,-0.3491,-0.3456,-0.3456,-0.3452,-0.345,-0.3354,-0.3354,-0.3354,0,0,0,0,0,0,-0.3803,-0.3792,-0.3687,-0.3729,-0.3715,-0.3664,-0.3641,-0.3632,-0.3613,-0.356,-0.355,-0.3589,-0.3508,-0.3497,-0.3458,-0.3452,-0.345,-0.3446,-0.3354,-0.3354,-0.3354,-0.3387,0,0,0,0,0,0,-0.3807,-0.3793,-0.3784,-0.3729,-0.3713,-0.3657,-0.364,-0.363,-0.3607,-0.3604,-0.3548,-0.3539,-0.3507,-0.3464,-0.3454,-0.3447,-0.3443,-0.3355,-0.3354,-0.3354,-0.3386,-0.3388,-0.3389,0,0,0,0,0,-0.3812,-0.3796,-0.3783,-0.3772,-0.37,-0.3657,-0.3647,-0.3612,-0.3607,-0.3596,-0.3562,-0.3541,-0.3455,-0.3461,-0.3449,-0.344,-0.3355,-0.3354,-0.3354,-0.3385,-0.3388,-0.3389,0,0,0,0,0,0,-0.3849,-0.3788,-0.3774,-0.3739,-0.3704,-0.3649,-0.3635,-0.3615,-0.3579,-0.3577,-0.3534,-0.3522,-0.3487,-0.3459,-0.3467,-0.3412,-0.3403,-0.34,-0.3431,-0.3432,-0.3434,-0.3441,-0.344,0,0,0,0,0,-0.3854,-0.3825,-0.3772,-0.3747,-0.373,-0.3686,-0.3665,-0.3642,-0.3602,-0.3586,-0.3549,-0.3511,-0.3475,-0.3452,-0.3416,-0.3382,-0.3369,-0.337,-0.3372,-0.3373,-0.3371,-0.3351,-0.335,-0.3352,-0.3352,-0.3352,0,0,-0.3862,-0.3825,-0.3809,-0.3754,-0.3723,-0.3693,-0.3673,-0.3642,-0.3619,-0.3581,-0.3543,-0.3514,-0.3468,-0.3432,-0.3414,-0.3408,-0.3368,-0.3373,-0.3374,-0.3371,-0.335,-0.335,-0.335,-0.3352,-0.3352,-0.3352,0,0,-0.3862,-0.3832,-0.3807,-0.3777,-0.3732,-0.3703,-0.3697,-0.3645,-0.3625,-0.3586,-0.3557,-0.3528,-0.3468,-0.3436,-0.3412,-0.34,-0.3379,-0.339,-0.3398,-0.3378,-0.3378,-0.3378,-0.3373,-0.3372,-0.3388,-0.3388,-0.3388,0,-0.3878,-0.3832,-0.3797,-0.3767,-0.3743,-0.371,-0.3684,-0.3656,-0.3601,-0.3584,-0.3579,-0.3502,-0.3469,-0.3424,-0.3422,-0.3404,-0.3395,-0.3396,-0.3381,-0.338,-0.3379,-0.3375,-0.3373,-0.3389,-0.3389,-0.3389,-0.3389,0,-0.3854,-0.3823,-0.3808,-0.3757,-0.3732,-0.3704,-0.3663,-0.3641,-0.362,-0.3591,-0.3551,-0.351,-0.3465,-0.3453,-0.3431,-0.3405,-0.3403,-0.339,-0.338,-0.3382,-0.3376,-0.3374,-0.3392,-0.3391,-0.3391,-0.339,0,0,-0.3874,-0.3805,-0.38,-0.3776,-0.3724,-0.3698,-0.3669,-0.3626,-0.3608,-0.3571,-0.3544,-0.3494,-0.3482,-0.3455,-0.3429,-0.3412,-0.3405,-0.3401,-0.3399,-0.3403,-0.3373,-0.3383,-0.3381,-0.3391,-0.339,-0.339,-0.3377,0,-0.3867,-0.3814,-0.3781,-0.3741,-0.3711,-0.3679,-0.3653,-0.3617,-0.3589,-0.3559,-0.3527,-0.3492,-0.3479,-0.3462,-0.3444,-0.341,-0.3398,-0.341,-0.3364,-0.3363,-0.3377,-0.3378,-0.3389,-0.3379,-0.3374,-0.3374,-0.3374,0,-0.3851,-0.3816,-0.3774,-0.3724,-0.371,-0.3688,-0.3646,-0.3618,-0.3577,-0.3557,-0.3527,-0.3501,-0.3468,-0.3461,-0.3414,-0.3423,-0.3402,-0.3382,-0.3381,-0.3375,-0.3368,-0.3372,-0.3374,-0.3373,-0.337,-0.337,-0.3371,0,-0.387,-0.3812,-0.3779,-0.376,-0.3702,-0.3687,-0.3661,-0.362,-0.3596,-0.3559,-0.3544,-0.3503,-0.348,-0.3449,-0.3412,-0.3411,-0.3368,-0.3358,-0.335,-0.3351,-0.3342,-0.3343,-0.3341,-0.333,-0.333,-0.333,-0.333,0,-0.3865,-0.384,-0.3787,-0.3767,-0.3737,-0.3699,-0.3671,-0.3643,-0.3606,-0.3579,-0.3548,-0.3523,-0.3476,-0.3444,-0.3415,-0.338,-0.337,-0.3353,-0.3345,-0.3355,-0.3358,-0.3341,-0.3341,-0.3329,-0.3329,-0.3329,-0.3329,0,-0.3881,-0.3845,-0.3806,-0.3755,-0.3741,-0.3722,-0.3677,-0.3655,-0.3626,-0.3592,-0.3581,-0.3534,-0.3496,-0.3456,-0.3404,-0.3384,-0.335,-0.3339,-0.3364,-0.336,-0.3354,-0.3355,-0.334,-0.3336,-0.3329,-0.3329,-0.3329,0,-0.388,-0.386,-0.3807,-0.3787,-0.3763,-0.3731,-0.3707,-0.3669,-0.3645,-0.3596,-0.358,-0.354,-0.3505,-0.3445,-0.3405,-0.3365,-0.3353,-0.3351,-0.3347,-0.3357,-0.3352,-0.3354,-0.3352,-0.3352,-0.3352,-0.3353,-0.3353,0,-0.3882,-0.3865,-0.3833,-0.3794,-0.3767,-0.3734,-0.37,-0.3685,-0.3639,-0.3614,-0.3575,-0.3549,-0.3495,-0.3455,-0.341,-0.3382,-0.336,-0.3355,-0.335,-0.336,-0.3376,-0.3367,-0.3368,-0.3355,-0.3355,-0.3355,-0.3355,-0.3354,-0.3889,-0.387,-0.3829,-0.3794,-0.3765,-0.3734,-0.3711,-0.3679,-0.3646,-0.3601,-0.358,-0.3541,-0.3499,-0.3436,-0.3409,-0.3377,-0.337,-0.3364,-0.3363,-0.3362,-0.3364,-0.3381,-0.3368,-0.3368,-0.3368,-0.3368,-0.3368,0,-0.3889,-0.3862,-0.383,-0.3784,-0.3756,-0.3738,-0.37,-0.3677,-0.3643,-0.3607,-0.3574,-0.3529,-0.349,-0.3447,-0.3405,-0.3388,-0.3376,-0.3378,-0.3379,-0.3372,-0.3373,-0.338,-0.3388,-0.3388,-0.3388,-0.3388,-0.3388,-0.3388,-0.3886,-0.3853,-0.3831,-0.3782,-0.3754,-0.3717,-0.3696,-0.3667,-0.3638,-0.3589,-0.3557,-0.353,-0.3491,-0.3446,-0.3409,-0.3397,-0.3383,-0.3388,-0.3373,-0.3374,-0.3373,-0.3371,-0.3378,-0.3385,-0.3385,-0.3376,-0.3376,-0.3376]},{"header":{"parameterUnit":"m.s-1","parameterCategory":1,"la1":30.2991,"la2":30.254,"lo1":-89.0895,"lo2":-89.0444,"dy":0.0017,"dx":0.0017,"nx":28,"ny":28,"refTime":"2023-09-11T03:00:00:Z","depth":0,"parameterNumber":3,"parameterNumberName":"V-component_of_WINDS"},"data":[0,0,0,0,0,0,0,0,0,0,0,0,0,0,0,0,0,0,0,0,0,0,0,0,0,0,0,0,0,0,0,0,0,0,0,0,0,0,0,0,0,0,0,0,0,0,0,0,0,0,0,0,0,0,0,0,0,0,0.1081,0.1081,0,0.1103,0.1103,0.1103,0.1135,0.1136,0.1136,0.1137,0.1157,0.1157,0.1157,0,0,0,0,0,0,0,0,0,0,0,0,0,0.1065,0.1065,0.1081,0.1081,0.1082,0.1102,0.1103,0.1103,0.1135,0.1136,0.1136,0.1137,0.1157,0.1157,0.1157,0,0,0,0,0,0,0,0,0,0,0,0,0,0.1077,0.1065,0.1081,0.11,0.1102,0.1102,0.1103,0.1103,0.1135,0.1136,0.1136,0.1137,0.1157,0.1157,0.1157,0.114,0,0,0.1157,0.1157,0,0,0,0,0,0,0,0,0.1077,0.1078,0.1097,0.1099,0.1101,0.1117,0.1104,0.1115,0.1135,0.1122,0.1137,0.1138,0.1143,0.1144,0.1146,0.114,0.1141,0.1157,0.1157,0.1157,0.1157,0,0,0,0,0,0,0,0.1076,0.1077,0.109,0.1097,0.11,0.1106,0.1109,0.1107,0.1127,0.1123,0.1126,0.1128,0.1144,0.1146,0.1147,0.1142,0.1157,0.1157,0.1157,0.1157,0.112,0.1119,0,0,0,0,0,0,0.1072,0.1076,0.1089,0.109,0.1091,0.1106,0.1109,0.1111,0.1127,0.1131,0.1127,0.1129,0.1145,0.1147,0.1147,0.1126,0.1157,0.1157,0.1157,0.1121,0.1119,0.1118,0,0,0,0,0,0,0.1072,0.1073,0.1088,0.1084,0.1086,0.1105,0.1107,0.1111,0.1113,0.113,0.1134,0.1126,0.1146,0.1147,0.1141,0.1127,0.1157,0.1157,0.1122,0.112,0.1119,0.1084,0,0,0,0,0,0,0.1071,0.1073,0.1068,0.1084,0.1086,0.1082,0.1107,0.1111,0.1113,0.1116,0.113,0.1133,0.1147,0.114,0.1141,0.1128,0.1157,0.1123,0.1121,0.1119,0.1087,0.1082,0.1078,0,0,0,0,0,0.1071,0.1057,0.1067,0.1069,0.108,0.1081,0.1083,0.11,0.1112,0.1106,0.1117,0.1132,0.1129,0.1139,0.114,0.1127,0.1124,0.1122,0.112,0.1089,0.1083,0.1078,0,0,0,0,0,0,0.1039,0.106,0.1071,0.1063,0.107,0.1087,0.108,0.1093,0.1097,0.1099,0.112,0.1122,0.1112,0.1119,0.1131,0.1109,0.1129,0.1126,0.1105,0.11,0.1095,0.1093,0.1157,0,0,0,0,0,0.1032,0.1031,0.1049,0.104,0.1043,0.106,0.1062,0.1074,0.1082,0.1085,0.1095,0.1102,0.1102,0.1101,0.1103,0.1088,0.109,0.1079,0.1075,0.1071,0.1068,0.1058,0.1053,0.1111,0.1111,0.1111,0,0,0.1015,0.1027,0.1025,0.1034,0.1041,0.1038,0.1063,0.106,0.1058,0.1084,0.1078,0.1086,0.1094,0.1082,0.1078,0.1088,0.1053,0.1068,0.1065,0.1064,0.1055,0.105,0.1045,0.111,0.111,0.111,0,0,0.0984,0.0994,0.0986,0.0992,0.1002,0.1013,0.1011,0.1025,0.1031,0.1025,0.1044,0.1041,0.1042,0.1046,0.1048,0.1016,0.103,0.1016,0.0992,0.0982,0.0977,0.0973,0.0959,0.0954,0.1014,0.1014,0.1013,0,0.0963,0.0961,0.098,0.0975,0.0977,0.1001,0.0991,0.0996,0.1006,0.1006,0.1018,0.1017,0.1024,0.1013,0.1004,0.1006,0.1003,0.1014,0.0976,0.0972,0.0969,0.0955,0.095,0.1012,0.1012,0.1012,0.1012,0,0.0932,0.0931,0.0923,0.0931,0.0932,0.0926,0.0942,0.0941,0.0952,0.0962,0.0954,0.0963,0.0965,0.0964,0.0976,0.0953,0.0958,0.0973,0.0992,0.0961,0.0949,0.0944,0.1009,0.101,0.101,0.1011,0,0,0.0883,0.09,0.0897,0.0899,0.0911,0.0909,0.0902,0.0905,0.0902,0.0908,0.0901,0.0899,0.0912,0.0914,0.0926,0.0918,0.0888,0.0933,0.0933,0.0922,0.086,0.0847,0.0841,0.0897,0.0897,0.0896,0.0858,0,0.0852,0.0842,0.0858,0.0843,0.084,0.0861,0.0855,0.086,0.0868,0.0866,0.0875,0.0873,0.0891,0.0892,0.0884,0.0893,0.0875,0.0896,0.0889,0.0888,0.0884,0.0835,0.0823,0.0787,0.0854,0.0853,0.0852,0,0.0816,0.0818,0.0803,0.0813,0.0812,0.0806,0.0808,0.0806,0.0812,0.0818,0.082,0.0834,0.0826,0.0845,0.0833,0.0847,0.0845,0.0848,0.0847,0.0846,0.0867,0.083,0.0776,0.0769,0.0846,0.0846,0.0847,0,0.0778,0.0778,0.0768,0.077,0.0782,0.0777,0.0781,0.0788,0.0787,0.0788,0.0788,0.0788,0.0788,0.0787,0.08,0.0813,0.0785,0.0806,0.0788,0.0787,0.0779,0.0779,0.0722,0.0782,0.0782,0.0782,0.0782,0,0.0741,0.073,0.075,0.0744,0.0732,0.0749,0.0736,0.0743,0.0748,0.0742,0.0761,0.0754,0.0773,0.0768,0.0778,0.0765,0.0765,0.0768,0.0771,0.0765,0.0765,0.0763,0.0765,0.0781,0.0781,0.0781,0.0781,0,0.0696,0.071,0.07,0.0711,0.0714,0.0704,0.0713,0.0707,0.0716,0.0708,0.0707,0.072,0.0715,0.0728,0.0726,0.0732,0.0712,0.072,0.071,0.0711,0.0691,0.0691,0.0628,0.062,0.0687,0.0687,0.0686,0,0.0671,0.0663,0.0673,0.067,0.0674,0.0669,0.0668,0.0684,0.0682,0.0686,0.0679,0.0675,0.0673,0.0664,0.0673,0.067,0.0676,0.0654,0.0676,0.0669,0.0672,0.0671,0.0669,0.0649,0.0648,0.0647,0.0647,0,0.0624,0.063,0.0628,0.0627,0.0625,0.0626,0.0627,0.0624,0.0641,0.0637,0.0632,0.063,0.0626,0.0621,0.062,0.0624,0.0637,0.064,0.0635,0.0628,0.0622,0.0622,0.0695,0.0641,0.0642,0.0642,0.0643,0.0643,0.0586,0.0579,0.0584,0.058,0.0582,0.0583,0.0576,0.0584,0.058,0.0578,0.0588,0.0579,0.0583,0.0582,0.0584,0.0577,0.0587,0.058,0.0578,0.0576,0.0571,0.0625,0.0577,0.0577,0.0577,0.0578,0.0578,0,0.0537,0.0541,0.0538,0.0538,0.0534,0.0548,0.055,0.0545,0.0538,0.054,0.0537,0.0529,0.0524,0.0532,0.0528,0.052,0.0526,0.0518,0.0518,0.0517,0.0564,0.0567,0.0513,0.0513,0.0513,0.0513,0.0513,0.0513,0.0512,0.0499,0.0505,0.0492,0.0496,0.0488,0.0488,0.0487,0.0488,0.0479,0.0474,0.048,0.0483,0.0479,0.0474,0.0476,0.0472,0.0462,0.0466,0.0508,0.0515,0.0521,0.0524,0.0461,0.0461,0.042,0.0419,0.0419]}]]